This demonstration page uses our WeatherBlox Daily Observations layout. Learn more.

Left ArrowRight Arrow

41.86663, -103.66717

Hourly Observations for March 1, 2018

Temp ( °F °C ) Dew Point ( °F °C ) Humidity (%) Winds ( mph kmh ) Pressure ( in mb ) Visibility ( mi km ) Precip ( " mm )
12:53 am 00:53 Clear 23 -5 18 -7.8 81 81 ESE 3 6 30.14 1021 10 16 N/A
1:53 am 01:53 Clear 22 -5.6 18 -7.8 85 85 ENE 5 7 30.15 1021 10 16 N/A
2:53 am 02:53 Clear 23 -5 18 -7.8 81 81 E 6 9 30.12 1020 10 16 N/A
3:53 am 03:53 Clear 20 -6.7 16 -8.9 85 85 E 6 9 30.14 1021 10 16 N/A
4:53 am 04:53 Clear 20 -6.7 17 -8.3 89 89 ESE 9 15 30.16 1021 10 16 N/A
5:53 am 05:53 Clear 21 -6.1 18 -7.8 88 88 E 7 11 30.19 1022 10 16 N/A
6:53 am 06:53 Sunny 22 -5.6 18 -7.8 85 85 NE 6 9 30.20 1023 10 16 N/A
7:53 am 07:53 Sunny 28 -2.2 22 -5.6 78 78 E 7 11 30.21 1023 10 16 N/A
8:53 am 08:53 Sunny 33 0.6 25 -3.9 72 72 ESE 5 7 30.19 1022 10 16 N/A
9:53 am 09:53 Sunny 39 3.9 24 -4.4 55 55 SSE 8 13 30.17 1022 10 16 N/A
10:53 am 10:53 Sunny 47 8.3 23 -5 39 39 SSW 13 20 30.14 1021 10 16 N/A
11:53 am 11:53 Sunny 49 9.4 23 -5 36 36 S 12 19 30.10 1019 10 16 N/A
12:53 pm 12:53 Sunny 52 11.1 23 -5 32 32 SE 12 19 30.06 1018 10 16 N/A
1:53 pm 13:53 Sunny 54 12.2 23 -5 30 30 SSE 17 28 30.04 1017 10 16 N/A
2:53 pm 14:53 Sunny 55 12.8 22 -5.6 28 28 SSE 12 19 30.01 1016 10 16 N/A
3:53 pm 15:53 Sunny 55 12.8 21 -6.1 26 26 S 17 28 30.00 1016 10 16 N/A
4:53 pm 16:53 Sunny 50 10 22 -5.6 33 33 SSE 10 17 30.00 1016 10 16 N/A
5:53 pm 17:53 Clear 43 6.1 25 -3.9 49 49 ESE 9 15 30.02 1017 10 16 N/A
6:53 pm 18:53 Clear 40 4.4 28 -2.2 63 63 ESE 12 19 30.03 1017 10 16 N/A
7:53 pm 19:53 Mostly Clear 40 4.4 25 -3.9 55 55 ESE 12 19 30.03 1017 10 16 N/A
8:53 pm 20:53 Mostly Cloudy 37 2.8 27 -2.8 67 67 ESE 13 20 30.04 1017 10 16 N/A
9:53 pm 21:53 Partly Cloudy 38 3.3 26 -3.3 62 62 ESE 12 19 30.01 1016 10 16 N/A
10:53 pm 22:53 Mostly Cloudy 36 2.2 24 -4.4 62 62 NNE 8 13 30.01 1016 10 16 N/A
11:53 pm 23:53 Clear 33 0.6 24 -4.4 70 70 E 10 17 30.00 1016 10 16 N/A

Powered by AerisWeather